DW1389 Weather Reports


Display with metric or nautical units.
time (UTC)temp
F
wind
direction
speed
MPH
gust
MPH
rain 1hr
in
rain 24hr
in
rain mn
in
humidity
%
barometer
mb
20260905155202 88 255 2.0 8.0 0.00 0.21 0.00 61 1014.1
20260905154702 88 196 3.0 6.0 0.00 0.21 0.00 66 1014.2
20260905154202 88 271 2.0 6.0 0.00 0.21 0.00 65 1014.2
20260905153702 88 216 2.0 6.0 0.00 0.21 0.00 63 1014.1
20260905153201 88 53 2.0 4.0 0.00 0.21 0.00 66 1014.1
20260905152946 88 332 2.0 5.0 0.00 0.21 0.00 67 1014.2
20260905152200 87 332 2.0 5.0 0.00 0.21 0.00 71 1014.2
20260905151944 87 280 1.0 5.0 0.00 0.21 0.00 70 1014.2
20260905151202 86 131 2.0 6.0 0.00 0.21 0.00 72 1014.2
20260905150701 86 329 2.0 6.0 0.00 0.21 0.00 74 1014.2
20260905150200 85 205 2.0 5.0 0.00 0.21 0.00 75 1014.2
20260905145700 85 152 2.0 5.0 0.00 0.21 0.00 74 1014.2
20260905145447 85 238 2.0 6.0 0.00 0.21 0.00 74 1014.2
20260905144700 85 271 2.0 6.0 0.00 0.21 0.00 76 1014.2
20260905144201 85 270 2.0 6.0 0.00 0.21 0.00 76 1014.2
20260905143701 84 207 2.0 5.0 0.00 0.21 0.00 77 1014.1
20260905143444 84 209 2.0 6.0 0.00 0.21 0.00 78 1014.2
20260905142949 83 286 2.0 6.0 0.00 0.21 0.00 81 1014.2
20260905142200 83 233 2.0 5.0 0.00 0.21 0.00 81 1014.2
20260905141700 83 2 2.0 5.0 0.00 0.21 0.00 83 1014.2
20260905141201 84 211 1.0 5.0 0.00 0.21 0.00 80 1014.1
20260905140701 84 0 1.0 5.0 0.00 0.21 0.00 82 1014.1
20260905140201 83 0 1.0 5.0 0.00 0.21 0.00 84 1014.0
20260905135701 83 238 1.0 5.0 0.00 0.21 0.00 84 1014.0
20260905135201 83 0 1.0 4.0 0.00 0.21 0.00 84 1014.0
20260905134950 82 208 1.0 4.0 0.00 0.21 0.00 85 1013.9
20260905134431 82 140 1.0 2.0 0.00 0.21 0.00 86 1013.9
20260905133702 81 153 1.0 2.0 0.00 0.21 0.00 86 1013.9
20260905133202 80 305 1.0 2.0 0.00 0.21 0.00 87 1013.9
20260905132704 80 0 1.0 2.0 0.00 0.21 0.00 88 1013.9
20260905132202 80 298 0.0 2.0 0.00 0.21 0.00 89 1013.8
20260905131928 79 101 0.0 2.0 0.00 0.21 0.00 88 1013.7
20260905131201 79 250 0.0 1.0 0.00 0.21 0.00 89 1013.7
20260905130702 78 0 0.0 2.0 0.00 0.21 0.00 89 1013.6
20260905130424 78 0 0.0 2.0 0.00 0.21 0.00 91 1013.6
20260905125702 77 61 0.0 1.0 0.00 0.21 0.00 92 1013.5
20260905125202 77 0 0.0 2.0 0.00 0.21 0.00 93 1013.4
20260905125152 76 128 0.0 2.0 0.00 0.21 0.00 94 1013.4
20260905124201 76 0 0.0 2.0 0.00 0.21 0.00 95 1013.3
20260905123702 76 131 0.0 2.0 0.00 0.21 0.00 95 1013.3
20260905123202 76 0 0.0 1.0 0.00 0.21 0.00 94 1013.2
20260905122702 75 305 0.0 1.0 0.00 0.21 0.00 94 1013.2
20260905122430 76 0 0.0 0.0 0.00 0.22 0.00 94 1013.1
20260905121701 76 0 0.0 1.0 0.00 0.22 0.00 94 1013.1
20260905121424 76 0 0.0 2.0 0.00 0.22 0.00 94 1013.1
20260905120702 76 0 1.0 2.0 0.00 0.23 0.00 94 1013.1
20260905120202 76 0 0.0 2.0 0.00 0.23 0.00 94 1013.0
20260905115932 76 195 0.0 2.0 0.00 0.23 0.00 94 1013.0
20260905115430 76 0 0.0 2.0 0.00 0.23 0.00 94 1012.9
20260905114702 76 213 0.0 2.0 0.00 0.23 0.00 93 1012.9
20260905114201 76 173 0.0 2.0 0.00 0.24 0.00 93 1012.9
20260905113932 76 132 0.0 2.0 0.00 0.24 0.00 93 1012.8
20260905113202 76 0 0.0 2.0 0.00 0.24 0.00 93 1012.8
20260905112702 76 263 0.0 1.0 0.00 0.24 0.00 93 1012.8
20260905112202 76 303 0.0 2.0 0.00 0.24 0.00 93 1012.8
20260905111702 77 0 0.0 2.0 0.00 0.24 0.00 92 1012.8
20260905111202 77 0 0.0 2.0 0.00 0.24 0.00 92 1012.8
20260905111156 77 275 0.0 2.0 0.00 0.24 0.00 92 1012.7
20260905110202 77 156 0.0 2.0 0.00 0.24 0.00 92 1012.7
20260905105928 77 0 1.0 2.0 0.00 0.24 0.00 92 1012.7
20260905105201 77 196 1.0 2.0 0.00 0.24 0.00 92 1012.7
20260905104701 77 193 0.0 2.0 0.00 0.24 0.00 92 1012.7
20260905104202 77 0 0.0 2.0 0.00 0.24 0.00 92 1012.7
20260905103702 77 0 0.0 1.0 0.00 0.24 0.00 92 1012.7
20260905103204 77 205 1.0 2.0 0.00 0.24 0.00 92 1012.7
20260905102702 77 235 1.0 2.0 0.00 0.24 0.00 92 1012.7
20260905102202 77 177 0.0 2.0 0.00 0.24 0.00 92 1012.7
20260905101701 77 0 1.0 2.0 0.00 0.24 0.00 92 1012.7
20260905101202 77 0 0.0 2.0 0.00 0.24 0.00 92 1012.6
20260905100930 77 0 0.0 1.0 0.00 0.24 0.00 91 1012.5
20260905100202 77 0 0.0 1.0 0.00 0.24 0.00 91 1012.5
20260905095702 77 214 0.0 2.0 0.00 0.24 0.00 91 1012.4
20260905095202 77 198 0.0 2.0 0.00 0.24 0.00 91 1012.5
20260905094702 77 0 0.0 1.0 0.00 0.24 0.00 91 1012.5
20260905094202 78 166 0.0 2.0 0.00 0.24 0.00 90 1012.5
20260905093703 78 0 1.0 3.0 0.00 0.24 0.00 90 1012.5
20260905093202 78 165 1.0 3.0 0.00 0.24 0.00 90 1012.5
20260905092702 78 185 2.0 3.0 0.00 0.24 0.00 90 1012.5
20260905092424 78 161 1.0 2.0 0.00 0.24 0.00 90 1012.6
20260905092405 78 210 1.0 3.0 0.00 0.24 0.00 90 1012.5
20260905091151 78 215 1.0 2.0 0.00 0.24 0.00 90 1012.6
20260905090650 78 234 1.0 2.0 0.00 0.24 0.00 90 1012.6
20260905090150 78 210 1.0 2.0 0.00 0.24 0.00 90 1012.6
20260905085651 78 189 1.0 3.0 0.00 0.24 0.00 89 1012.6
20260905085414 78 188 1.0 3.0 0.00 0.24 0.00 90 1012.6
20260905084858 78 206 1.0 2.0 0.00 0.24 0.00 89 1012.7
20260905084136 78 271 1.0 3.0 0.00 0.24 0.00 89 1012.7
20260905083906 78 164 1.0 3.0 0.00 0.24 0.00 89 1012.8
20260905083136 78 199 2.0 3.0 0.00 0.24 0.00 89 1012.7
20260905082636 78 188 2.0 3.0 0.00 0.24 0.00 89 1012.7
20260905082135 78 209 1.0 3.0 0.00 0.24 0.00 89 1012.6
20260905081635 78 226 1.0 2.0 0.00 0.24 0.00 88 1012.7
20260905081137 78 283 1.0 2.0 0.00 0.24 0.00 88 1012.7
20260905080634 78 188 1.0 2.0 0.00 0.24 0.00 87 1012.7
20260905080135 78 212 1.0 2.0 0.00 0.24 0.00 87 1012.8
20260905075634 78 263 1.0 2.0 0.00 0.24 0.00 87 1012.8
20260905075138 78 288 1.0 2.0 0.00 0.24 0.00 87 1012.8
20260905075133 78 0 1.0 2.0 0.00 0.24 0.00 87 1012.8
20260905074135 78 227 1.0 2.0 0.00 0.24 0.00 86 1012.8
20260905073630 78 174 1.0 2.0 0.00 0.24 0.00 86 1012.9
20260905073130 78 268 1.0 4.0 0.00 0.24 0.00 86 1013.0
20260905072630 78 259 1.0 4.0 0.00 0.24 0.00 86 1013.0
20260905072130 78 308 1.0 3.0 0.00 0.24 0.00 86 1013.0
20260905071902 78 274 1.0 3.0 0.00 0.24 0.00 85 1013.0
20260905071401 78 120 1.0 4.0 0.00 0.24 0.00 85 1013.0
20260905070632 78 281 1.0 4.0 0.00 0.24 0.00 85 1013.0
20260905070130 78 133 1.0 4.0 0.00 0.24 0.00 85 1013.1
20260905065630 79 42 1.0 2.0 0.00 0.24 0.00 84 1013.2
20260905065358 79 88 1.0 2.0 0.00 0.24 0.00 84 1013.1
20260905064630 79 192 1.0 3.0 0.00 0.24 0.00 84 1013.1
20260905064350 79 179 2.0 3.0 0.00 0.24 0.00 84 1013.1
20260905063850 79 268 2.0 3.0 0.00 0.24 0.00 84 1013.1
20260905063123 79 277 1.0 3.0 0.00 0.24 0.00 83 1013.2
20260905062622 79 255 1.0 3.0 0.00 0.24 0.00 83 1013.2
20260905062107 79 250 1.0 3.0 0.00 0.24 0.00 83 1013.2
20260905061608 79 295 1.0 3.0 0.00 0.24 0.00 83 1013.2
20260905061108 79 245 1.0 3.0 0.00 0.24 0.00 83 1013.2
20260905060608 79 230 1.0 3.0 0.00 0.24 0.00 83 1013.3
20260905060107 79 84 1.0 2.0 0.00 0.24 0.00 83 1013.4
20260905055608 79 43 1.0 2.0 0.00 0.24 0.00 83 1013.3
20260905055351 79 138 1.0 3.0 0.00 0.24 0.00 82 1013.3
20260905055115 79 165 1.0 3.0 0.00 0.24 0.00 82 1013.3
20260905054108 79 133 1.0 3.0 0.00 0.24 0.00 82 1013.3
20260905053602 79 88 1.0 3.0 0.00 0.24 0.00 81 1013.3
20260905053053 79 101 1.0 3.0 0.00 0.24 0.00 81 1013.3
20260905052553 80 112 1.0 4.0 0.00 0.24 0.00 81 1013.3
20260905052037 80 285 1.0 4.0 0.00 0.24 0.00 81 1013.3
20260905051537 80 286 1.0 3.0 0.00 0.24 0.00 81 1013.3
20260905051038 80 261 1.0 3.0 0.00 0.24 0.00 81 1013.4
20260905050531 80 118 1.0 3.0 0.00 0.24 0.00 81 1013.4
20260905050030 80 130 1.0 3.0 0.00 0.24 0.00 81 1013.4
20260905045530 80 78 1.0 4.0 0.00 0.24 0.24 82 1013.4
20260905045300 80 289 1.0 4.0 0.00 0.24 0.24 82 1013.3
20260905044530 80 270 1.0 4.0 0.00 0.24 0.24 82 1013.3
20260905044030 80 146 1.0 3.0 0.00 0.24 0.24 82 1013.3
20260905043529 80 0 1.0 3.0 0.00 0.24 0.24 82 1013.3
20260905043031 80 138 1.0 3.0 0.00 0.24 0.24 82 1013.2
20260905042530 80 142 1.0 3.0 0.00 0.24 0.24 82 1013.3
20260905042030 80 223 1.0 3.0 0.00 0.24 0.24 82 1013.3
20260905041803 80 127 0.0 2.0 0.00 0.24 0.24 82 1013.3
20260905041029 80 0 0.0 2.0 0.00 0.24 0.24 82 1013.3
20260905040524 80 127 1.0 3.0 0.00 0.24 0.24 82 1013.2
20260905040025 80 124 1.0 3.0 0.00 0.24 0.24 82 1013.2
20260905035525 80 94 1.0 3.0 0.00 0.24 0.24 82 1013.2
20260905035024 80 0 1.0 3.0 0.00 0.24 0.24 82 1013.2
20260905034518 80 154 1.0 3.0 0.00 0.24 0.24 82 1013.3
20260905034514 80 0 1.0 3.0 0.00 0.24 0.24 82 1013.2
20260905033510 80 99 1.0 3.0 0.00 0.24 0.24 82 1013.2
20260905033010 80 166 1.0 2.0 0.00 0.24 0.24 82 1013.2
20260905032746 80 87 1.0 3.0 0.00 0.24 0.24 82 1013.2
20260905032010 80 85 1.0 4.0 0.00 0.24 0.24 83 1013.1
20260905031511 80 86 1.0 4.0 0.00 0.24 0.24 83 1013.1
20260905031012 80 349 1.0 3.0 0.00 0.24 0.24 83 1013.1
20260905030505 80 353 1.0 2.0 0.00 0.24 0.24 83 1013.0
20260905025958 80 95 0.0 1.0 0.00 0.24 0.24 83 1013.0
20260905025728 80 314 1.0 2.0 0.00 0.24 0.24 82 1013.0
20260905024955 81 53 1.0 3.0 0.00 0.24 0.24 82 1012.9
20260905024439 81 347 1.0 3.0 0.00 0.24 0.24 81 1012.9
20260905023941 81 354 1.0 2.0 0.00 0.24 0.24 81 1012.8
20260905023440 81 79 1.0 3.0 0.00 0.24 0.24 81 1012.8
20260905023205 81 81 1.0 3.0 0.00 0.24 0.24 81 1012.7
20260905022440 81 326 0.0 2.0 0.00 0.24 0.24 81 1012.6
20260905021940 81 0 0.0 2.0 0.00 0.24 0.24 80 1012.6
20260905021440 81 95 1.0 2.0 0.00 0.24 0.24 81 1012.6
20260905020940 82 340 1.0 2.0 0.00 0.24 0.24 80 1012.5
20260905020440 82 0 1.0 3.0 0.00 0.24 0.24 80 1012.5
20260905020212 82 117 1.0 3.0 0.00 0.24 0.24 81 1012.5
20260905015439 82 139 1.0 2.0 0.00 0.24 0.24 81 1012.3
20260905015205 82 294 0.0 2.0 0.00 0.24 0.24 82 1012.3
20260905014439 82 0 0.0 1.0 0.00 0.24 0.24 82 1012.3
20260905013939 82 6 1.0 2.0 0.00 0.24 0.24 82 1012.3
20260905013709 82 0 1.0 2.0 0.00 0.24 0.24 81 1012.2
20260905012940 82 106 1.0 2.0 0.00 0.24 0.24 81 1012.2
20260905012440 82 166 1.0 2.0 0.00 0.24 0.24 81 1012.1
20260905011943 82 127 0.0 2.0 0.00 0.24 0.24 82 1012.1
20260905011938 82 0 0.0 1.0 0.00 0.24 0.24 82 1012.1
20260905010940 82 0 0.0 2.0 0.00 0.24 0.24 81 1012.0
20260905010659 82 117 1.0 2.0 0.00 0.24 0.24 81 1012.0
20260905005929 82 174 1.0 2.0 0.00 0.24 0.24 80 1011.9
20260905005703 83 160 1.0 3.0 0.00 0.24 0.24 80 1011.9
20260905004929 83 0 1.0 3.0 0.00 0.24 0.24 80 1011.8
20260905004430 83 155 1.0 4.0 0.00 0.24 0.24 80 1011.7
20260905004425 83 141 1.0 4.0 0.00 0.24 0.24 79 1011.7
20260905003430 83 319 1.0 2.0 0.00 0.24 0.24 80 1011.7
20260905002929 82 48 1.0 2.0 0.00 0.24 0.24 80 1011.7
20260905002429 82 316 1.0 3.0 0.00 0.24 0.24 80 1011.7
20260905002153 82 91 1.0 3.0 0.00 0.24 0.24 80 1011.6
20260905001428 82 246 1.0 2.0 0.00 0.24 0.24 81 1011.6
20260905000928 82 0 1.0 2.0 0.00 0.24 0.24 81 1011.5
20260905000427 82 77 1.0 2.0 0.00 0.24 0.24 81 1011.5
20260904235928 82 0 1.0 4.0 0.00 0.24 0.24 81 1011.5
20260904235428 82 155 1.0 4.0 0.00 0.24 0.24 80 1011.6
20260904234927 82 140 1.0 4.0 0.04 0.24 0.24 80 1011.6
20260904234429 81 144 1.0 3.0 0.07 0.24 0.24 80 1011.6
20260904233930 81 104 1.0 2.0 0.09 0.24 0.24 81 1011.6
20260904233700 80 122 1.0 2.0 0.21 0.24 0.24 81 1011.5
20260904232928 80 77 1.0 3.0 0.21 0.24 0.24 82 1011.5
20260904232428 80 62 1.0 3.0 0.21 0.24 0.24 80 1011.6
20260904231927 80 0 1.0 3.0 0.21 0.24 0.24 80 1011.6
20260904231425 79 91 1.0 3.0 0.21 0.24 0.24 80 1011.6
20260904230924 79 277 1.0 3.0 0.21 0.24 0.24 81 1011.5
20260904230426 78 97 1.0 5.0 0.21 0.24 0.24 82 1011.6
20260904225923 79 174 2.0 8.0 0.21 0.24 0.24 83 1011.6
20260904225422 79 104 3.0 9.0 0.21 0.24 0.24 83 1011.6
20260904224922 80 205 3.0 10.0 0.17 0.20 0.19 79 1011.7
20260904224424 82 110 5.0 12.0 0.13 0.16 0.16 83 1011.6
20260904223923 88 268 5.0 12.0 0.12 0.15 0.08 75 1011.7
20260904223423 91 12 4.0 12.0 0.00 0.03 0.03 59 1011.5
20260904222923 95 242 3.0 12.0 0.00 0.03 0.03 55 1011.4
20260904222423 97 301 2.0 8.0 0.00 0.03 0.03 44 1011.2
20260904221923 97 229 2.0 8.0 0.00 0.03 0.03 44 1011.2
20260904221419 97 147 2.0 8.0 0.00 0.03 0.03 45 1011.0
20260904220919 97 207 2.0 7.0 0.00 0.03 0.03 45 1011.1
20260904220420 97 11 2.0 6.0 0.00 0.03 0.03 45 1011.0
20260904215919 97 222 2.0 6.0 0.00 0.03 0.03 44 1011.1
20260904215421 97 238 2.0 9.0 0.00 0.03 0.03 44 1011.2
20260904215205 97 144 2.0 9.0 0.00 0.03 0.03 45 1011.3
20260904214417 96 227 2.0 7.0 0.00 0.03 0.03 46 1011.5
20260904213917 96 2 2.0 8.0 0.00 0.03 0.03 44 1011.5
20260904213416 96 186 2.0 8.0 0.00 0.03 0.03 45 1011.6
20260904212917 96 109 2.0 6.0 0.00 0.03 0.03 45 1011.6
20260904212418 96 253 2.0 6.0 0.00 0.03 0.03 45 1011.7
20260904211917 95 130 2.0 8.0 0.00 0.03 0.03 48 1011.9
20260904211417 96 0 2.0 8.0 0.00 0.03 0.03 47 1011.8
20260904210918 95 311 2.0 7.0 0.00 0.03 0.03 49 1011.9
20260904210418 96 292 2.0 7.0 0.00 0.03 0.03 48 1011.8
20260904205917 96 183 2.0 7.0 0.00 0.03 0.03 47 1011.9
20260904205417 95 176 2.0 6.0 0.00 0.03 0.03 49 1011.9
20260904204914 94 202 3.0 7.0 0.00 0.03 0.03 49 1012.0
20260904204414 95 230 3.0 7.0 0.00 0.03 0.03 49 1012.2
20260904203916 95 75 2.0 7.0 0.00 0.03 0.03 48 1012.3
20260904203414 95 172 2.0 7.0 0.00 0.03 0.03 49 1012.3
20260904202915 95 285 2.0 7.0 0.00 0.03 0.03 49 1012.4
20260904202656 94 218 2.0 7.0 0.00 0.03 0.03 49 1012.5
20260904201916 94 272 2.0 7.0 0.00 0.03 0.03 51 1012.6
20260904201809 93 24 2.0 7.0 0.00 0.03 0.03 54 1012.7
20260904201519 93 191 2.0 5.0 0.00 0.03 0.03 55 1012.7
20260904201500 94 273 2.0 7.0 0.00 0.03 0.03 52 1012.6
20260904195915 93 270 2.0 5.0 0.00 0.03 0.03 54 1012.8
20260904195656 94 103 2.0 5.0 0.00 0.03 0.03 54 1012.8
20260904194915 94 254 2.0 8.0 0.00 0.03 0.03 53 1012.8
20260904194416 93 290 3.0 8.0 0.00 0.03 0.03 54 1012.8
20260904193913 93 205 3.0 7.0 0.00 0.03 0.03 56 1012.9
20260904193413 92 255 3.0 9.0 0.00 0.03 0.03 57 1013.0
20260904192910 92 258 3.0 9.0 0.00 0.03 0.03 57 1013.0
20260904192656 92 277 3.0 7.0 0.00 0.03 0.03 57 1013.1
20260904191911 92 274 3.0 8.0 0.00 0.03 0.03 58 1013.1
20260904191407 92 307 3.0 8.0 0.00 0.03 0.03 58 1013.2
20260904190906 91 347 3.0 8.0 0.00 0.03 0.03 59 1013.3
20260904190407 90 203 3.0 8.0 0.00 0.03 0.03 60 1013.4
20260904185907 90 202 3.0 8.0 0.00 0.03 0.03 61 1013.5
20260904185408 89 62 3.0 9.0 0.00 0.03 0.03 61 1013.6
20260904184908 89 249 3.0 9.0 0.00 0.03 0.03 61 1013.6
20260904184407 89 237 2.0 9.0 0.00 0.03 0.03 63 1013.7
20260904183907 89 231 3.0 7.0 0.00 0.03 0.03 62 1013.7
20260904183655 88 199 3.0 6.0 0.00 0.03 0.03 64 1013.8
20260904182907 87 228 3.0 7.0 0.00 0.03 0.03 64 1013.9
20260904182408 87 197 3.0 7.0 0.00 0.03 0.03 64 1013.9
20260904181904 88 215 2.0 6.0 0.00 0.03 0.03 64 1013.9
20260904181405 88 177 2.0 5.0 0.00 0.03 0.03 63 1013.9
20260904180937 87 327 2.0 6.0 0.00 0.03 0.03 64 1014.0
20260904180927 87 243 2.0 6.0 0.00 0.03 0.03 63 1013.9
20260904175901 87 210 2.0 6.0 0.00 0.03 0.03 63 1014.0
20260904175401 87 107 3.0 9.0 0.00 0.03 0.03 63 1014.1
20260904174902 87 236 4.0 9.0 0.00 0.03 0.03 62 1014.1
20260904174401 87 196 3.0 6.0 0.00 0.03 0.03 62 1014.1
20260904173902 87 206 2.0 6.0 0.00 0.03 0.03 64 1014.2
20260904173401 88 190 2.0 5.0 0.00 0.03 0.03 61 1014.2
20260904172901 87 145 2.0 8.0 0.00 0.03 0.03 59 1014.3
20260904172645 87 211 2.0 8.0 0.00 0.03 0.03 58 1014.3
20260904171902 87 176 2.0 8.0 0.00 0.03 0.03 64 1014.3
20260904171402 87 54 2.0 5.0 0.00 0.03 0.03 67 1014.2
20260904170901 87 245 2.0 5.0 0.00 0.03 0.03 66 1014.3
20260904170400 87 200 2.0 6.0 0.00 0.03 0.03 67 1014.3
20260904170145 86 175 2.0 6.0 0.00 0.03 0.03 68 1014.4
20260904165402 86 178 2.0 5.0 0.00 0.03 0.03 69 1014.4
20260904164901 86 212 2.0 6.0 0.00 0.03 0.03 69 1014.4
20260904164400 86 233 2.0 6.0 0.00 0.03 0.03 69 1014.5
20260904163900 86 194 3.0 8.0 0.00 0.03 0.03 68 1014.4
20260904163400 86 268 3.0 8.0 0.00 0.03 0.03 69 1014.4
20260904162901 86 73 2.0 5.0 0.00 0.03 0.03 70 1014.4
20260904162401 86 296 2.0 6.0 0.00 0.03 0.03 72 1014.4
20260904161900 85 180 2.0 6.0 0.00 0.03 0.03 72 1014.4
20260904161646 85 218 2.0 5.0 0.00 0.03 0.03 73 1014.4
20260904160902 85 181 2.0 7.0 0.00 0.03 0.03 72 1014.3
20260904160401 85 185 2.0 7.0 0.00 0.03 0.03 72 1014.3
20260904155902 85 237 3.0 7.0 0.00 0.03 0.03 72 1014.2